Tracking 23762 objects as of 22-Oct-2021
HD Live streaming from Space Station
objects crossing your sky now

CZ-3C DEB

Track CZ-3C DEB now!


NORAD ID: 40196
Int'l Code: 2012-008F
Perigee: 605.0 km
Apogee: 34,158.0 km
Inclination: 21.6 °
Period: 607.2 minutes
Semi major axis: 23752 km
RCS: Unknown
Launch date: February 24, 2012
Source: People's Republic of China (PRC)
Launch site: Xichang Space Center, China (XSC)

Note: This is SATELLITE DEBRIS
aabbcc
Your satellite tracking list
Your tracking list is empty




NASA's NSSDC Master Catalog

Two Line Element Set (TLE):
1 40196U 12008F   21294.52187679 -.00000042  00000-0  43401-3 0  9996
2 40196  21.6265 140.0579 7063044  27.0305 356.8213  2.37158282 68663
Source of the keplerian elements: AFSPC